Regional Weather Roundup
Issued by NWS

Home | Current Version | Previous Version | Text Only | Print | Product List | Glossary Off
Versions: 1 2 3 4 5 6 7 8 9 10 11 12 13 14 15 16 17 18 19 20 21 22 23 24 25 26 27 28 29 30 31 32 33 34 35 36 37 38 39 40 41 42 43 44 45 46 47 48 49 50

000
ASUS45 KPSR 252300
RWRAZ

PRELIMINARY ARIZONA REGIONAL HOURLY WEATHER ROUNDUP
NATIONAL WEATHER SERVICE PHOENIX AZ
400 PM MST THU DEC 25 2014

NOTE: FAIR INDICATES FEW OR NO CLOUDS BELOW 12,000 FEET WITH NO
SIGNIFICANT WEATHER AND/OR OBSTRUCTIONS TO VISIBILITY.

AZZ001>003-036-260000-
NORTHWEST ARIZONA

CITY           SKY/WX    TMP DP  RH WIND       PRES   REMARKS
KINGMAN        SUNNY     44   5  20 N22       29.79R
$$

AZZ004>008-015-016-018-260000-
NORTH CENTRAL ARIZONA

CITY           SKY/WX    TMP DP  RH WIND       PRES   REMARKS
GRAND CANYON   FLURRIES  28  16  60 W7        29.65R WCI  21
PRESCOTT       PTSUNNY   44  13  28 NW13G21   29.68R
FLAGSTAFF      NOT AVBL
PAYSON         MOSUNNY   43  19  39 SW10G21   29.70S
PAGE           CLOUDY    41  12  30 W13G28    29.64R
$$

AZZ009>014-017-260000-
NORTHEAST ARIZONA

CITY           SKY/WX    TMP DP  RH WIND       PRES   REMARKS
WINSLOW        NOT AVBL
SAINT JOHNS    CLOUDY    41  22  46 W21G31    29.65R
WINDOW ROCK    LGT SNOW  30  25  81 W7        29.63R VSB 1   WCI  23
$$

AZZ023-260000-
GREATER PHOENIX AREA

CITY           SKY/WX    TMP DP  RH WIND       PRES   REMARKS
PHOENIX        MOSUNNY   61  29  29 W9        29.70S
GLENDALE       MOSUNNY   61  32  33 S14       29.72S
LUKE AFB       SUNNY     61  32  32 SW15      29.69F
DEER VALLEY    SUNNY     58  26  29 S12       29.69F
SCOTTSDALE     MOSUNNY   58  25  28 SW8       29.71F
MESA-FALCON    PTSUNNY   57  25  28 SW12      29.71
MESA-GATEWAY   MOSUNNY   61  28  29 W10       29.72
CHANDLER       MOSUNNY   61  28  29 SW18      29.71F
$$

AZZ027-028-260000-
SOUTHWEST MARICOPA COUNTY AND PINAL COUNTY

CITY           SKY/WX    TMP DP  RH WIND       PRES   REMARKS
CASA GRANDE    MOSUNNY   59  25  27 W12       29.71S
$$

AZZ503-504-507>509-260000-
SOUTHEAST ARIZONA

CITY           SKY/WX    TMP DP  RH WIND       PRES   REMARKS
TUCSON         CLOUDY    59  27  29 N23G30    29.73R
DAVIS-MONTHAN  CLOUDY    57  26  31 NW26G33   29.70R
RYAN FIELD       N/A     61  32  33 N16G22    29.74R
NOGALES        CLOUDY    62  29  28 SW23G30   29.74F
SIERRA VISTA   MOSUNNY   57  20  23 SW20G32   29.71S
SAFFORD        SUNNY     59  19  21 NW25G33   29.62S
$$

AZZ020-021-025-026-031-260000-
SOUTHWEST ARIZONA

CITY           SKY/WX    TMP DP  RH WIND       PRES   REMARKS
YUMA           MOSUNNY  N/A N/A N/A N15G22    29.76S
$$

CAZ031-033-041-043-047-048-061-260000-
SOUTHERN CALIFORNIA

CITY           SKY/WX    TMP DP  RH WIND       PRES   REMARKS
DOWNTOWN L.A.  SUNNY     64  17  16 VRB5      29.83R
L.A. AIRPORT   MOSUNNY   63  21  20 NW10G20   29.84R
SAN DIEGO      MOSUNNY   67  32  27 W10       29.82S
BURBANK        SUNNY     62  17  17 N16       29.84R
ONTARIO        MOSUNNY   63  19  18 E10       29.80S
RIVERSIDE      SUNNY     61  15  16 NE15G23   29.81S
PALM SPRINGS   SUNNY     65   8  10 N12       29.80S
EL CENTRO NAS  CLOUDY    67  26  21 N10       29.77R
IMPERIAL       CLOUDY    67  25  20 N9        29.76S
BLYTHE         SUNNY     62   8  12 NW22      29.78S
$$

NVZ020-UTZ003-260000-
SOUTHERN NEVADA-UTAH

CITY           SKY/WX    TMP DP  RH WIND       PRES   REMARKS
LAS VEGAS      NOT AVBL
SALT LAKE CITY LGT SNOW  30  28  92 N5        29.73R FOG     WCI  25
$$

NMZ009-TXZ055-260000-
NEW MEXICO-WEST TEXAS

CITY           SKY/WX    TMP DP  RH WIND       PRES   REMARKS
ALBUQUERQUE    MOCLDY    49  15  25 NW7       29.60F
EL PASO        MOSUNNY   66  12  12 SW20      29.68F
$$


........................KEY........................
SKY/WX - SKY CONDITION/WEATHER
TMP    - TEMPERATURE IN FAHRENHEIT
DP     - DEW POINT IN FAHRENHEIT
RH     - RELATIVE HUMIDITY IN PERCENT
WIND   - DIRECTION AND SPEED IN MILES PER HOUR (MPH)
VRB    - VARIABLE WIND DIRECTION
PRES   - MEAN SEA LEVEL PRESSURE IN INCHES OF MERCURY
         F - FALLING PRESSURE   R - RISING PRESSURE
         S - STEADY PRESSURE
VSB    - VISIBILITY IN MILES
HX     - HEAT INDEX IN FAHRENHEIT
WCI    - WIND CHILL INDEX IN FAHRENHEIT
TC     - TEMPERATURE IN CELSIUS WHICH IS ALSO KNOWN AS
         TEMPERATURE IN CENTIGRADE
AFB    - AIR FORCE BASE
         LUKE AFB IS LUKE AIR FORCE BASE
         DAVIS-MONTHAN IS DAVIS-MONTHAN AIR FORCE BASE
NAS    - NAVAL AIR STATION
         EL CENTRO NAS IS EL CENTRO NAVAL AIR STATION
N/A    - NOT AVAILABLE



USA.gov is the U.S. government's official web portal to all federal, state and local government web resources and services.